{"data":{"norad_id":50493,"epoch":"2026-05-25T01:07:13.846656Z","epoch_age_seconds":65012,"freshness":"FRESH","line1":"1 50493U 21132AA  26145.04668804  .00000025  00000+0  29396-4 0  9993","line2":"2 50493  87.9169 340.0610 0002040  95.3511 264.7854 13.18685442218613","mean_motion":13.18685442,"eccentricity":0.000204,"inclination_deg":87.9169,"raan_deg":340.061,"arg_perigee_deg":95.3511,"mean_anomaly_deg":264.7854,"bstar":2.9396e-5,"rev_number":21861,"period_min":109.19965854905,"perigee_km":1188.2014137777,"apogee_km":1191.2891097405,"semimajor_km":7567.8822617591,"source":"CELESTRAK","updated_at":"2026-05-25T13:38:22.533210Z"}}